Location: Zilina
(49.2167°N, 18.7333°E)
Time: 16:42:47
(UTC+02:00)

ISS - Pass Details

Date: 23 September 2018
Orbit: 403 x 408 km, 51.6° (Epoch: 20 October)

Event Time Altitude Azimuth Distance (km) Brightness Sun altitude
Rises 19:29:56 0° 202° (SSW) 2,326 0.2 -8.7°
Reaches altitude 10° 19:32:29 10° 182° (S) 1,470 -1.1 -9.1°
Maximum altitude 19:34:43 17° 139° (SE) 1,119 -2.1 -9.5°
Enters shadow 19:36:00 14° 111° (ESE) 1,249 -2.0 -9.7°
